Location: Auckland
(36.8670°S, 174.7670°E)
Time: 18:13:02
(UTC+12:00)

Tiangong 2 - Pass Details

Date: 26 June 2019
Orbit: 185 x 377 km, 42.8° (Epoch: 18 July)

Event Time Altitude Azimuth Distance (km) Brightness Sun altitude
Rises 18:55:50 0° 250° (WSW) 2,239 5.9 -19.9°
Reaches altitude 10° 18:58:04 10° 237° (WSW) 1,407 4.5 -20.3°
Enters shadow 19:00:01 24° 204° (SSW) 862 2.9 -20.7°
